Theta_e
298 298 298 298 297 297 296 296 296 295 295 295 295 295 294 294 294 293 293 293 292 292 291 291 290 290 290 289 289 290 290 290 290 290 290 290 290 290 289 289 289 289
298 298 298 297 297 296 296 296 296 295 295 295 295 295 294 294 294 293 293 293 292 292 291 291 290 290 290 290 290 290 290 290 290 290 290 290 290 289 289 289 289 289
298 298 297 297 297 296 296 296 295 295 295 295 295 295 294 294 294 294 293 293 293 292 291 291 290 290 290 290 291 291 290 290 290 290 290 290 289 289 289 289 289 288
298 298 297 297 296 296 296 296 295 295 295 295 295 294 294 294 294 294 293 293 292 292 291 291 290 290 290 290 290 290 290 290 290 289 289 289 288 288 288 288 288 288
298 297 297 296 296 296 296 295 295 295 295 295 294 294 294 294 294 293 293 292 292 291 291 290 290 290 290 290 290 290 290 289 289 289 288 288 288 288 287 287 287 287
297 297 297 296 296 296 295 295 295 295 295 294 294 294 294 293 293 292 292 291 291 291 290 290 290 290 290 290 289 289 289 289 288 288 288 287 287 287 287 287 287 287
297 297 296 296 295 295 295 295 295 295 294 294 294 293 293 293 292 291 291 290 290 290 290 290 290 290 289 289 289 289 288 288 288 288 287 287 287 287 287 287 286 287
297 297 296 295 295 295 295 295 295 294 294 294 293 293 292 292 291 291 290 290 289 289 289 289 289 289 289 289 289 288 288 288 288 288 287 287 287 287 286 286 286 286
296 296 295 295 295 295 295 295 294 294 293 293 293 292 292 291 290 290 289 289 289 289 289 289 289 289 289 289 288 288 288 288 288 288 287 287 287 287 286 286 286 286
295 295 295 295 295 295 294 294 293 293 293 292 292 291 291 290 290 289 289 289 289 289 289 289 289 289 289 288 288 288 288 288 288 288 287 287 287 287 286 286 286 286
295 294 294 294 294 294 293 293 292 292 292 292 291 291 290 290 289 289 289 289 289 289 289 289 289 288 288 288 288 288 288 288 288 288 287 287 287 287 286 286 286 285
295 294 294 293 293 292 292 292 292 291 291 291 290 290 289 289 289 288 288 288 289 289 289 289 289 289 288 288 288 288 288 288 288 288 288 287 287 287 286 286 285 285
294 294 293 293 292 291 291 291 291 290 290 290 290 289 289 288 288 288 288 288 289 289 289 289 289 289 288 288 288 288 288 288 288 288 288 287 287 287 286 286 285 285
294 293 292 291 291 291 291 290 290 290 290 289 289 289 288 288 288 288 288 289 289 289 289 289 289 289 289 288 288 288 288 288 288 288 288 287 287 287 286 285 285 284
293 292 291 291 290 290 290 290 290 290 289 289 289 288 288 288 288 288 288 289 289 289 289 289 289 289 289 288 288 288 288 288 288 287 287 287 287 287 286 285 285 284
292 291 291 290 290 290 290 290 289 289 289 288 288 288 288 288 288 288 288 289 289 289 289 289 288 288 288 288 288 288 288 287 287 287 287 287 287 286 285 285 285 284
292 291 291 290 291 291 290 289 289 288 288 288 288 288 288 288 288 288 288 288 289 289 288 288 288 288 288 288 288 287 287 287 287 287 287 287 287 286 285 285 284 283
292 291 291 291 291 291 290 289 288 288 288 288 288 288 288 288 288 288 288 288 288 288 288 288 288 288 288 287 287 287 287 287 287 287 287 287 286 285 285 284 283 282
292 292 292 292 292 291 289 288 288 288 288 287 287 287 287 287 287 287 287 288 288 288 288 288 288 287 287 287 287 287 287 287 287 287 287 286 286 285 285 284 283 282
293 293 293 292 292 290 289 288 288 288 287 287 287 287 287 287 287 287 287 287 287 288 287 287 287 287 287 287 287 287 287 287 287 286 286 286 286 285 284 284 282 281
293 294 293 293 291 290 289 288 288 287 287 287 287 287 287 287 287 287 287 287 287 287 287 287 287 287 286 286 286 286 286 286 286 286 286 286 285 285 284 284 282 281
294 294 294 292 291 289 288 288 288 288 287 287 287 287 287 287 287 287 287 287 286 286 286 287 287 286 286 286 286 286 286 286 286 286 286 286 285 285 284 284 282 281
295 294 293 292 291 290 289 289 289 288 288 287 287 287 287 287 287 287 287 286 286 286 287 287 286 286 286 286 286 286 286 286 286 286 286 285 285 285 284 283 282 281
295 294 294 293 292 291 290 290 289 289 289 288 288 287 287 287 287 287 287 287 287 287 287 287 287 286 286 286 286 286 286 286 286 285 285 285 285 285 284 283 282 281
295 295 294 293 293 292 291 290 290 290 290 289 288 288 288 288 288 288 288 288 288 288 287 287 287 286 286 286 286 285 285 285 285 285 285 285 285 284 284 283 282 281
295 295 295 294 294 293 292 291 291 291 290 290 289 289 289 288 288 288 288 288 288 288 287 287 287 286 286 286 285 285 285 285 285 285 285 285 285 284 284 283 282 281
Wind_Speed
15 14 12 11 10 9 9 8 7 6 5 4 3 2 1 1 2 2 3 4 5 6 7 8 9 10 11 11 12 13 14 15 16 17 18 19 21 22 22 23 22 23
16 14 12 11 10 10 9 8 7 5 4 3 2 1 0 1 2 3 4 5 6 7 8 9 10 10 11 12 13 14 15 16 17 18 19 21 22 23 24 24 24 24
16 14 13 11 11 10 9 8 7 5 4 3 2 1 2 2 3 4 5 6 7 8 9 9 10 11 12 13 14 15 15 16 17 19 20 21 22 22 22 23 23 23
17 15 13 12 11 10 9 8 7 5 4 3 3 3 3 4 5 5 6 7 8 9 9 10 11 11 12 13 14 15 15 16 17 18 19 20 21 21 20 21 21 22
17 16 14 13 12 11 10 8 7 6 5 5 5 5 5 6 6 7 8 9 9 10 11 11 11 11 11 12 13 15 16 17 18 18 19 19 19 20 19 19 20 20
18 17 16 15 13 12 11 9 8 7 7 8 8 8 8 8 8 9 9 10 11 12 11 11 10 11 11 12 13 14 15 16 17 17 18 18 19 19 20 20 20 20
20 18 17 16 15 14 12 11 10 10 10 10 10 10 10 10 10 11 11 12 12 11 10 10 10 11 11 12 13 14 15 15 17 17 18 19 20 20 21 21 21 20
21 20 19 18 17 15 14 13 13 12 12 12 12 12 12 12 12 12 12 12 11 10 10 10 10 11 11 12 13 14 15 16 17 18 19 20 21 22 22 22 21 20
23 22 21 20 18 17 16 15 15 14 14 14 13 13 13 13 14 13 13 12 11 10 10 10 10 11 12 13 14 15 17 17 18 19 20 21 22 23 23 22 21 20
25 24 23 21 20 19 18 17 16 16 15 15 15 14 15 15 15 14 13 12 11 10 10 11 11 12 13 14 15 16 17 18 19 20 21 22 23 24 24 23 21 20
27 25 24 23 21 20 19 18 18 17 17 16 16 16 16 16 16 14 13 12 12 12 12 12 13 13 14 15 16 17 18 19 20 21 22 23 24 25 25 24 22 21
27 26 25 24 22 21 20 20 19 19 18 17 17 17 17 17 16 15 14 14 13 13 13 14 14 14 15 16 17 17 18 19 21 22 23 24 25 26 26 24 22 21
28 27 25 24 23 22 21 21 20 20 19 18 18 18 18 18 17 16 16 15 14 14 14 14 14 15 16 17 18 18 19 20 21 23 24 25 26 27 26 25 23 22
28 26 25 24 23 23 22 22 21 21 20 19 19 20 19 19 18 18 17 16 16 16 15 15 15 16 17 18 19 19 20 21 22 24 25 26 27 27 27 25 23 22
28 26 26 25 25 24 24 24 23 22 22 21 21 21 21 20 20 19 19 18 17 17 16 16 16 17 18 19 20 20 20 21 23 24 25 27 27 28 27 25 23 22
28 27 27 27 27 26 26 25 25 24 23 22 22 22 22 22 21 21 20 20 19 18 18 17 18 19 20 20 21 21 21 22 23 25 26 27 28 28 27 25 23 22
29 29 29 28 28 28 27 27 26 25 24 24 24 24 24 24 23 23 22 21 21 20 20 19 19 20 21 21 21 21 22 23 24 26 27 27 28 28 27 24 23 22
30 30 29 30 30 29 29 28 27 26 25 25 25 25 25 25 25 24 24 24 23 22 22 21 22 22 22 22 22 22 23 25 26 27 28 28 28 27 26 24 23 22
31 30 30 31 31 31 30 29 28 27 27 26 26 26 27 27 26 26 26 26 25 24 24 24 23 23 23 23 23 23 24 26 27 28 28 28 28 27 26 24 23 23
31 31 31 32 32 31 30 29 29 28 27 27 28 28 29 28 28 28 28 28 27 26 26 26 25 24 24 24 24 24 25 27 28 29 29 29 28 28 27 25 24 24
32 33 34 34 33 31 30 29 29 28 28 29 29 29 29 29 30 30 30 29 29 28 28 28 27 26 26 25 25 25 26 27 29 29 30 30 29 29 28 27 25 25
34 34 35 34 32 31 30 30 29 29 29 29 29 29 30 31 32 32 31 30 30 30 30 30 29 27 27 26 26 26 27 28 29 30 30 30 30 30 30 28 27 26
34 34 33 33 32 31 31 30 29 29 29 29 29 30 30 31 32 31 31 31 31 31 32 31 30 28 27 27 27 26 28 29 30 31 31 31 30 30 30 29 28 27
32 32 32 31 31 31 30 29 29 28 28 28 29 29 29 30 30 30 30 31 31 32 32 32 31 29 28 28 27 27 29 30 31 31 31 31 31 31 31 30 29 28
28 29 29 30 30 29 29 28 28 27 27 27 28 28 28 28 29 29 30 31 32 33 32 32 31 29 27 28 27 28 29 30 31 32 32 32 32 32 32 31 29 29
24 25 26 27 28 28 27 27 27 26 27 27 27 28 28 28 29 30 31 32 32 32 32 31 30 28 27 28 28 28 29 30 31 32 32 32 33 33 33 32 31 29
Wind_Direction
176 177 176 174 172 168 162 157 150 145 143 139 130 117 97 41 18 9 359 354 349 348 347 347 348 349 348 349 347 346 344 343 343 344 344 344 342 341 339 337 335 333
180 179 179 178 175 170 164 158 155 153 152 152 151 152 184 327 334 335 333 331 331 332 334 335 336 336 334 333 331 331 332 334 335 336 337 337 337 335 333 331 329 328
183 182 182 181 176 172 167 163 164 165 168 177 187 222 254 279 299 308 309 311 313 315 318 318 316 316 317 318 320 323 327 330 332 334 334 333 332 330 327 324 322 321
185 185 184 182 178 176 174 171 173 178 188 201 214 232 251 264 276 285 288 291 294 295 294 294 296 300 307 314 319 322 327 331 333 333 332 330 328 324 321 319 317 315
189 188 186 185 184 182 182 183 187 195 202 213 224 232 242 252 260 267 272 274 275 277 278 282 289 298 307 315 321 326 330 332 333 333 331 329 326 323 320 318 316 314
191 191 189 190 190 189 190 193 199 207 212 220 226 231 238 244 251 255 259 263 266 269 274 281 290 300 310 318 324 328 330 331 332 333 332 331 329 327 324 321 318 316
194 194 195 195 195 195 198 203 208 213 218 224 228 233 239 242 247 252 255 260 264 269 277 285 294 304 313 319 322 324 327 330 331 333 332 332 332 330 327 324 320 318
199 200 199 200 200 202 206 210 215 219 223 228 232 236 241 245 249 252 254 258 263 270 279 288 298 306 312 315 318 321 324 327 329 330 331 332 332 332 330 326 321 318
203 204 205 205 206 209 212 216 219 223 227 232 236 239 243 247 250 250 252 256 261 268 278 288 297 304 308 312 317 320 323 325 327 329 329 331 332 333 331 327 321 317
207 208 209 210 212 214 217 220 222 226 230 234 238 242 245 247 247 247 249 252 258 265 276 286 293 299 305 311 316 319 321 323 325 327 327 329 332 333 332 328 321 315
211 212 213 215 216 218 220 223 226 229 232 236 240 243 245 245 245 245 246 250 256 265 274 282 288 296 302 309 314 316 319 322 323 324 325 328 331 333 332 328 320 315
215 216 218 218 219 220 223 226 229 232 234 238 240 243 244 244 243 243 246 251 257 265 272 279 287 295 301 307 310 313 316 319 320 321 323 326 330 332 331 327 320 313
219 220 221 222 222 224 227 230 232 234 236 239 241 243 244 243 241 243 246 252 259 265 272 279 286 293 299 303 306 309 312 315 316 318 320 324 328 330 330 325 318 312
222 223 223 224 225 226 230 233 234 236 238 239 241 242 242 241 241 244 248 253 259 265 271 278 285 292 297 299 301 305 308 310 312 314 317 322 325 327 327 322 316 310
223 224 224 225 227 230 232 234 236 238 239 239 240 240 241 241 242 246 250 254 259 265 270 276 284 290 293 295 298 301 304 306 309 312 315 319 322 324 323 319 313 308
225 225 226 227 230 233 235 235 237 238 238 238 239 240 241 242 244 248 252 256 260 265 269 275 283 287 291 294 296 298 301 303 306 310 313 316 319 321 321 316 310 306
227 227 229 232 235 236 237 237 237 237 237 238 239 241 242 243 246 249 252 257 261 264 269 275 281 285 289 292 294 296 298 301 304 307 310 313 316 318 318 314 307 304
230 231 233 236 239 240 239 238 237 236 237 239 240 242 244 244 246 250 254 258 261 265 271 276 280 283 287 290 291 293 296 299 301 304 307 311 314 316 316 311 306 304
234 235 238 241 242 241 239 237 237 237 238 240 242 244 245 245 246 250 255 259 263 267 272 276 279 282 285 288 289 291 294 296 299 302 305 308 312 315 314 309 306 304
238 240 242 244 243 242 240 238 238 239 240 242 243 244 245 246 248 252 257 261 265 269 273 276 278 280 282 284 286 288 291 293 296 299 303 307 311 313 313 309 305 304
241 243 244 245 244 242 241 240 240 241 242 243 244 246 248 249 250 253 258 263 267 271 274 276 277 278 279 281 283 285 287 290 294 297 301 305 309 312 311 307 304 303
244 245 246 247 245 243 242 241 241 242 243 245 246 247 249 250 252 254 259 264 268 272 274 276 276 276 277 279 280 282 285 288 292 296 299 304 308 310 309 306 303 302
246 248 249 248 247 245 244 243 243 243 245 246 247 249 250 252 255 258 262 266 269 272 274 275 275 274 275 277 278 280 283 286 290 294 298 303 306 308 307 305 302 302
248 250 250 249 248 247 246 245 245 245 247 248 249 251 253 256 259 261 264 267 269 271 273 273 273 273 273 274 275 277 280 284 289 293 297 302 305 305 305 303 301 301
248 249 249 248 247 247 247 246 246 247 250 250 251 254 256 258 261 262 264 266 268 270 271 271 272 271 270 271 272 275 279 284 289 292 296 301 303 303 303 301 300 300
247 248 248 246 245 244 244 246 247 249 250 251 252 254 256 258 260 262 263 265 267 269 269 269 270 268 267 268 270 273 278 283 288 291 296 300 300 300 301 300 299 300